• Join FlightAware (Why Join?)
  • Login
  • US Flag 
08:59PM EDT


 

Airport Tracker/Info


-or-


 

Live Flight TrackerFlight Track Log ✈ N668DN ✈ 26-Apr-2013 ✈ KPHX - KMSP

Flight Track Log - Related Links

Times and Time Zones

All times are in EDT time to prevent confusion due to time zone crossing. See the N668DN flight status page for this flight to view local times or setup timezone preferences in your user account.

Time Position Orientation Groundspeed Altitude Reporting Facility
EDT Latitude Longitude Course Direction KTS MPH feet Rate Location/Type
10:18AM 33.4333 -111.9833 20° North 178 205 2,200  Level Phoenix TRACON
10:19AM 33.4333 -111.9000 90° East 228 262 4,300 2,280 Climbing Phoenix TRACON
10:20AM 33.4833 -111.8500 40° Northeast 278 320 7,100 2,880 Climbing Phoenix TRACON
10:21AM 33.7910 -111.8466 20° North  Level FlightAware Approximate
10:21AM 33.5653 -111.8292 12° North 276 318 10,600  Level Albuquerque Center
10:22AM 33.9105 -111.7944 20° North  Level FlightAware Approximate
10:22AM 33.6556 -111.8103 10° North 313 360 12,200  Level Albuquerque Center
10:23AM 34.0300 -111.7421 20° North  Level FlightAware Approximate
10:23AM 33.7583 -111.7892 10° North 362 417 14,700  Level Albuquerque Center
10:24AM 33.8639 -111.7675 10° North 377 434 17,200 2,160 Climbing Albuquerque Center
10:25AM 33.9722 -111.7461 North 390 449 19,200 1,860 Climbing Albuquerque Center
10:26AM 34.0831 -111.7039 18° North 413 475 21,100 1,860 Climbing Albuquerque Center
10:27AM 34.2144 -111.6531 18° North 434 499 23,100 1,740 Climbing Albuquerque Center
10:28AM 34.3344 -111.6111 16° North 445 512 24,700 1,500 Climbing Albuquerque Center
10:30AM 34.4589 -111.5650 17° North 460 529 26,200 1,320 Climbing Albuquerque Center
10:31AM 34.5769 -111.4906 27° Northeast 484 557 27,500 1,200 Climbing Albuquerque Center
10:32AM 34.6731 -111.3661 47° Northeast 501 577 28,800 1,620 Climbing Albuquerque Center
10:33AM 34.7872 -111.2147 47° Northeast 505 581 30,900 1,560 Climbing Albuquerque Center
10:34AM 34.8831 -111.0903 47° Northeast 503 579 32,000 960 Climbing Albuquerque Center
10:35AM 34.9794 -110.9603 48° Northeast 514 592 33,000 480 Climbing Albuquerque Center
10:36AM 35.0811 -110.8275 47° Northeast 513 590 33,000  Level Albuquerque Center
10:37AM 35.1725 -110.7028 48° Northeast 513 590 33,000  Level Albuquerque Center
10:38AM 35.2831 -110.5592 47° Northeast 518 596 33,000  Level Albuquerque Center
10:39AM 35.3758 -110.4325 48° Northeast 521 600 33,000  Level Albuquerque Center
10:40AM 35.4856 -110.2864 47° Northeast 521 600 33,000  Level Albuquerque Center
10:41AM 35.5792 -110.1617 47° Northeast 519 597 33,000  Level Albuquerque Center
10:42AM 35.6864 -110.0175 47° Northeast 514 592 33,000  Level Albuquerque Center
10:43AM 35.7783 -109.8939 47° Northeast 510 587 33,000  Level Albuquerque Center
10:44AM 35.8842 -109.7475 48° Northeast 510 587 33,000  Level Albuquerque Center
10:44AM 35.9300 -109.6869 47° Northeast 511 588 33,000  Level Denver Center
10:45AM 35.9758 -109.6236 48° Northeast 510 587 33,000  Level Albuquerque Center
10:45AM 36.0200 -109.5622 48° Northeast 507 583 33,000  Level Denver Center
10:47AM 36.1272 -109.4169 48° Northeast 507 583 33,000  Level Denver Center
10:48AM 36.2183 -109.2900 48° Northeast 510 587 33,000  Level Denver Center
10:49AM 36.3108 -109.1628 48° Northeast 513 590 33,000  Level Denver Center
10:50AM 36.4175 -109.0136 48° Northeast 512 589 33,000  Level Denver Center
10:51AM 36.5092 -108.8867 48° Northeast 511 588 33,000  Level Denver Center
10:52AM 36.6147 -108.7389 48° Northeast 510 587 33,000  Level Denver Center
10:53AM 36.7047 -108.6111 49° Northeast 511 588 33,000  Level Denver Center
10:54AM 36.8075 -108.4647 49° Northeast 504 580 33,000  Level Denver Center
10:55AM 36.8958 -108.3403 48° Northeast 500 575 33,000  Level Denver Center
10:56AM 36.9964 -108.1956 49° Northeast 494 568 33,000  Level Denver Center
10:57AM 37.0967 -108.0508 49° Northeast 493 567 33,000  Level Denver Center
10:58AM 37.1967 -107.9089 48° Northeast 487 560 33,000  Level Denver Center
10:59AM 37.2825 -107.7839 49° Northeast 492 566 33,000  Level Denver Center
11:00AM 37.3814 -107.6406 49° Northeast 488 562 33,000  Level Denver Center
11:01AM 37.4661 -107.5172 49° Northeast 486 559 33,000  Level Denver Center
11:02AM 37.5647 -107.3742 49° Northeast 484 557 33,000  Level Denver Center
11:03AM 37.6475 -107.2497 50° Northeast 482 555 33,000  Level Denver Center
11:04AM 37.7464 -107.1042 49° Northeast 487 560 33,000  Level Denver Center
11:05AM 37.8364 -106.9706 50° Northeast 485 558 33,000  Level Denver Center
11:06AM 37.9200 -106.8481 49° Northeast 481 554 33,000  Level Denver Center
11:07AM 38.0019 -106.7239 50° Northeast 480 552 33,000  Level Denver Center
11:08AM 38.0989 -106.5781 50° Northeast 483 556 33,000  Level Denver Center
11:09AM 38.1881 -106.4450 50° Northeast 482 555 33,000  Level Denver Center
11:10AM 38.2747 -106.3139 50° Northeast 484 557 33,000  Level Denver Center
11:12AM 38.3603 -106.1828 50° Northeast 483 556 33,000  Level Denver Center
11:13AM 38.4589 -106.0333 50° Northeast 482 555 33,000  Level Denver Center
11:14AM 38.5458 -105.9008 50° Northeast 478 550 33,000  Level Denver Center
11:15AM 38.6447 -105.7458 51° Northeast 478 550 33,000  Level Denver Center
11:16AM 38.7306 -105.6144 50° Northeast 478 550 33,000  Level Denver Center
11:17AM 38.8158 -105.4814 51° Northeast 479 551 33,000  Level Denver Center
11:18AM 38.9150 -105.3256 51° Northeast 478 550 33,000  Level Denver Center
11:19AM 39.0008 -105.1922 50° Northeast 479 551 33,000  Level Denver Center
11:20AM 39.0853 -105.0592 51° Northeast 477 549 33,000  Level Denver Center
11:21AM 39.1708 -104.9247 51° Northeast 481 554 33,000  Level Denver Center
11:22AM 39.2569 -104.7892 51° Northeast 483 556 33,000  Level Denver Center
11:23AM 39.3394 -104.6553 51° Northeast 476 548 33,000  Level Denver Center
11:24AM 39.4378 -104.4986 51° Northeast 483 556 33,000  Level Denver Center
11:25AM 39.5219 -104.3631 51° Northeast 486 559 33,000  Level Denver Center
11:26AM 39.6064 -104.2275 51° Northeast 484 557 33,000  Level Denver Center
11:27AM 39.6906 -104.0892 52° Northeast 485 558 33,000  Level Denver Center
11:28AM 39.7742 -103.9519 52° Northeast 482 555 33,000  Level Denver Center
11:29AM 39.8589 -103.8131 52° Northeast 486 559 33,000  Level Denver Center
11:30AM 39.9575 -103.6533 51° Northeast 481 554 33,000  Level Denver Center
11:31AM 40.0406 -103.5147 52° Northeast 482 555 33,000  Level Denver Center
11:32AM 40.1244 -103.3764 52° Northeast 482 555 33,000  Level Denver Center
11:33AM 40.2089 -103.2369 52° Northeast 484 557 33,000  Level Denver Center
11:34AM 40.2917 -103.0969 52° Northeast 482 555 33,000  Level Denver Center
11:36AM 40.3733 -102.9572 52° Northeast 479 551 33,000  Level Denver Center
11:37AM 40.4575 -102.8175 52° Northeast 483 556 33,000  Level Denver Center
11:38AM 40.5539 -102.6533 52° Northeast 483 556 33,000  Level Denver Center
11:39AM 40.6367 -102.5119 52° Northeast 482 555 33,000  Level Denver Center
11:40AM 40.7147 -102.3786 52° Northeast 480 552 33,000  Level Denver Center
11:41AM 40.8058 -102.2214 53° Northeast 482 555 33,000  Level Denver Center
11:42AM 40.8842 -102.0864 52° Northeast 483 556 33,000  Level Denver Center
11:43AM 40.9886 -101.9044 53° Northeast 486 559 33,000  Level Denver Center
11:44AM 41.0661 -101.7683 53° Northeast 483 556 33,000  Level Denver Center
11:45AM 41.1575 -101.6089 53° Northeast 485 558 33,000  Level Denver Center
11:46AM 41.2344 -101.4728 53° Northeast 481 554 33,000  Level Denver Center
11:47AM 41.3236 -101.3133 53° Northeast 480 552 33,000  Level Denver Center
11:48AM 41.4019 -101.1761 53° Northeast 482 555 33,000  Level Denver Center
11:49AM 41.4911 -101.0150 54° Northeast 482 555 33,000  Level Denver Center
11:50AM 41.5669 -100.8789 53° Northeast 478 550 33,000  Level Denver Center
11:51AM 41.6303 -100.7650 53° Northeast 478 550 33,000  Level Denver Center
11:52AM 41.7306 -100.5822 54° Northeast 476 548 33,000  Level Denver Center
11:54AM 41.8317 -100.3972 54° Northeast 480 552 33,000  Level Denver Center
11:55AM 41.9067 -100.2583 54° Northeast 479 551 33,000  Level Denver Center
11:56AM 41.9864 -100.1147 53° Northeast 478 550 33,000  Level Minneapolis Center
11:57AM 42.0669 -99.9625 54° Northeast 473 544 33,000  Level Denver Center
11:58AM 42.1400 -99.8269 54° Northeast 469 540 33,000  Level Denver Center
11:59AM 42.2142 -99.6878 54° Northeast 463 533 33,000  Level Denver Center
12:00PM 42.3050 -99.5153 55° Northeast 467 537 33,000  Level Denver Center
12:01PM 42.3808 -99.3739 54° Northeast 465 535 33,000  Level Minneapolis Center
12:02PM 42.4861 -99.1733 55° Northeast 467 537 33,000  Level Minneapolis Center
12:03PM 42.5614 -99.0317 54° Northeast 464 534 33,000  Level Minneapolis Center
12:04PM 42.6356 -98.8867 55° Northeast 465 535 33,000  Level Minneapolis Center
12:05PM 42.7106 -98.7414 55° Northeast 467 537 33,000  Level Minneapolis Center
12:06PM 42.7853 -98.5967 55° Northeast 467 537 33,000  Level Minneapolis Center
12:07PM 42.8603 -98.4500 55° Northeast 470 541 33,000  Level Minneapolis Center
12:08PM 42.9472 -98.2811 55° Northeast 471 542 33,000  Level Minneapolis Center
12:09PM 43.0217 -98.1350 55° Northeast 471 542 33,000  Level Minneapolis Center
12:10PM 43.0808 -98.0167 56° Northeast 473 544 33,000  Level Minneapolis Center
12:12PM 43.1604 -97.8559 56° Northeast  Level FlightAware Approximate
12:13PM 43.2583 -97.6622 56° Northeast 471 542 33,000  Level Minneapolis Center
12:14PM 43.3175 -97.5428 56° Northeast 473 544 33,000  Level Minneapolis Center
12:15PM 43.4047 -97.3647 56° Northeast 471 542 33,000  Level Minneapolis Center
12:16PM 43.4931 -97.1858 56° Northeast 472 543 33,000  Level Minneapolis Center
12:17PM 43.5661 -97.0375 56° Northeast 471 542 33,000  Level Minneapolis Center
12:18PM 43.6244 -96.9172 56° Northeast 473 544 33,000  Level Minneapolis Center
12:19PM 43.7117 -96.7375 56° Northeast 471 542 33,000  Level Minneapolis Center
12:20PM 43.7853 -96.5842 56° Northeast 480 552 33,000  Level Minneapolis Center
12:21PM 43.8733 -96.4003 56° Northeast 481 554 33,000 -540 Level Minneapolis Center
12:22PM 43.9461 -96.2469 57° Northeast 482 555 31,900 -1,080 Descending Minneapolis Center
12:23PM 44.0178 -96.0956 57° Northeast 480 552 30,800 -1,020 Descending Minneapolis Center
12:24PM 44.0753 -95.9750 56° Northeast 479 551 29,900 -1,020 Descending Minneapolis Center
12:25PM 44.1742 -95.7658 57° Northeast 468 539 28,800 -1,020 Descending Minneapolis Center
12:26PM 44.2431 -95.6164 57° Northeast 463 533 27,900 -840 Descending Minneapolis Center
12:27PM 44.3117 -95.4669 57° Northeast 459 528 27,100 -1,080 Descending Minneapolis Center
12:28PM 44.3811 -95.3194 57° Northeast 457 526 25,500 -1,980 Descending Minneapolis Center
12:29PM 44.4594 -95.1450 58° Northeast 443 510 22,700 -2,640 Descending Minneapolis Center
12:30PM 44.5100 -94.9597 69° East 428 493 20,000 -2,160 Descending Minneapolis Center
12:31PM 44.5436 -94.8064 73° East 417 480 18,300 -1,740 Descending Minneapolis Center
12:32PM 44.5781 -94.6567 72° East 408 470 16,500 -1,800 Descending Minneapolis Center
12:34PM 44.6117 -94.5181 71° East 387 445 14,700 -1,740 Descending Minneapolis Center
12:35PM 44.6433 -94.3792 72° East 377 434 13,000 -1,680 Descending Minneapolis Center
12:36PM 44.6747 -94.2394 72° East 377 434 11,300 -1,020 Descending Minneapolis Center
12:37PM 44.7100 -94.0825 72° East 353 406 11,000 -180 Descending Minneapolis Center
12:38PM 44.7367 -93.9639 72° East 318 366 11,000  Level Minneapolis Center
12:39PM 44.7625 -93.8458 73° East 316 364 11,000  Level Minneapolis Center
12:40PM 44.7894 -93.7258 72° East 322 371 11,000 -540 Level Minneapolis Center
12:41PM 44.8156 -93.6069 73° East 318 366 10,000 -1,080 Descending Minneapolis Center
12:42PM 44.8411 -93.4897 73° East 313 360 8,800 -1,020 Descending Minneapolis Center
12:43PM 44.8456 -93.3561 87° East 302 348 8,000 -420 Descending Minneapolis Center
12:44PM 44.8047 -93.2547 120° Southeast 296 341 8,000 -540 Level Minneapolis Center
12:45PM 44.7653 -93.1550 119° Southeast 276 318 7,000 -960 Descending Minneapolis Center
12:46PM 44.7258 -93.0611 121° Southeast 276 318 6,100 -480 Descending Minneapolis Center
12:47PM 44.7311 -92.9853 84° East 226 260 6,000 -120 Descending Minneapolis Center